Puerto Vallarta, Mexico

2:41 AM CDT on June 22, 2018 (GMT -0500)
Lic Gustavo Diaz Ordaz International

Weather History for MMPR - January, 2018

Change the Weather History Date:

Sunday, January 14, 2018

  Actual Average Record
Temperature  
Mean Temperature 68 °F -  
Max Temperature 77 °F 79 °F 95 °F (2000)
Min Temperature 60 °F 59 °F 55 °F (2002)
Cooling Degree Days 4    
Growing Degree Days 18 (Base 50)    
Moisture  
Dew Point 65 °F    
Average Humidity 88    
Maximum Humidity 100    
Minimum Humidity 57    
Precipitation  
Precipitation 0.00 in - - ()
Sea Level Pressure  
Sea Level Pressure 30.04 in    
Wind  
Wind Speed 4 mph ()    
Max Wind Speed 9 mph    
Max Gust Speed -    
Visibility 12.6 miles    
Events      
Averages and records for this station are not official NWS values.
T = Trace of Precipitation, MM = Missing Value Source: Averaged Metar Reports

Daily Weather History Graph

Daily Weather History Graph

Search for Another Location

Airport or City:

Astronomy

Jan. 14, 2018 Rise Set
Actual Time 7:39 AM CST 6:40 PM CST
Civil Twilight 7:16 AM CST 7:04 PM CST
Nautical Twilight 6:49 AM CST 7:31 PM CST
Astronomical Twilight 6:22 AM CST 7:58 PM CST
Moon 5:39 AM CST (1/14) 4:58 PM CST (1/14)
Length of Visible Light 11h 47m
Length of Day
11h 00m
Waning Crescent, 5% of the Moon is Illuminated
Jan 14
Waning Crescent
Jan 16
New
Jan 24
First Quarter
Jan 31
Full
Feb 7
Last Quarter

Hourly Weather History & Observations

Time (CST) Temp. Dew Point Humidity Pressure Visibility Wind Dir Wind Speed Gust Speed Precip Events Conditions
12:41 AM 66.2 °F 66.2 °F 100% 30.05 in 12.0 mi NNE 4.6 mph - N/A   Partly Cloudy
1:41 AM 64.4 °F 64.4 °F 100% 30.04 in 12.0 mi NE 3.5 mph - N/A   Scattered Clouds
2:50 AM 64.4 °F 64.4 °F 100% 30.02 in 12.0 mi NNE 4.6 mph - N/A   Clear
4:07 AM 62.6 °F 62.6 °F 100% 30.02 in 12.0 mi NNE 5.8 mph - N/A   Clear
4:41 AM 62.6 °F 62.6 °F 100% 30.02 in 12.0 mi NNE 2.3 mph - N/A   Clear
5:46 AM 60.8 °F 60.8 °F 100% 30.03 in 1.0 mi Calm Calm - N/A   Clear
6:44 AM 60.8 °F 60.8 °F 100% 30.05 in 12.0 mi NE 3.5 mph - N/A   Clear
8:00 AM 60.8 °F 60.8 °F 100% 30.07 in 15.0 mi Calm Calm - N/A   Clear
8:47 AM 62.6 °F 60.8 °F 94% 30.08 in 15.0 mi Calm Calm - N/A   Clear
9:50 AM 68.0 °F 60.8 °F 78% 30.10 in 15.0 mi NE 4.6 mph - N/A   Unknown
10:52 AM 75.2 °F 59.0 °F 57% 30.10 in 15.0 mi Calm Calm - N/A   Clear
11:47 AM 77.0 °F 64.4 °F 65% 30.08 in 15.0 mi SSW 4.6 mph - N/A   Clear
12:41 PM 77.0 °F 60.8 °F 57% 3.00 in 15.0 mi SW 6.9 mph - N/A   Clear
1:43 PM 77.0 °F 66.2 °F 69% 30.03 in 15.0 mi SW 8.1 mph - N/A   Clear
2:49 PM 77.0 °F 66.2 °F 69% 29.99 in 15.0 mi SSW 9.2 mph - N/A   Clear
3:47 PM 77.0 °F 69.8 °F 78% 2.99 in 12.0 mi SW 9.2 mph - N/A   Clear
4:48 PM 77.0 °F 69.8 °F 78% 2.98 in 12.0 mi SSW 9.2 mph - N/A   Clear
5:40 PM 75.2 °F 69.8 °F 83% 29.98 in 12.0 mi SSW 6.9 mph - N/A   Clear
6:42 PM 73.4 °F 71.6 °F 94% 30.00 in 12.0 mi South 3.5 mph - N/A   Clear
7:42 PM 73.4 °F 73.4 °F 100% 30.02 in 12.0 mi SSE 3.5 mph - N/A   Clear
8:46 PM 69.8 °F 69.8 °F 100% 30.03 in 12.0 mi ENE 3.5 mph - N/A   Clear
9:40 PM 68.0 °F 68.0 °F 100% 30.05 in 12.0 mi NNE 3.5 mph - N/A   Clear
11:43 PM 64.4 °F 64.4 °F 100% 30.04 in 12.0 mi NE 3.5 mph - N/A   Clear